KQ4KX Weather Reports


time (UTC)temp
F
wind
direction
speed
knots
gust
knots
rain 1hr
in
rain 24hr
in
rain mn
in
humidity
%
barometer
mb
20200531082306 70 0 0.0 0.0 0.00 0.00 0.00 89 1014.8
20200531081848 70 0 0.0 0.0 0.00 0.00 0.00 89 1014.8
20200531081817 70 0 0.0 0.0 0.00 0.00 0.00 89 1014.8
20200531081735 70 0 0.0 0.0 0.00 0.00 0.00 89 1014.8
20200531081235 70 0 0.0 0.0 0.00 0.00 0.00 89 1014.8
20200531080705 70 0 0.0 0.0 0.00 0.00 0.00 89 1014.8
20200531080255 70 0 0.0 0.0 0.00 0.00 0.00 89 1014.8
20200531080135 70 0 0.0 0.0 0.00 0.00 0.00 89 1014.8
20200531075708 70 0 0.0 0.0 0.00 0.00 0.00 89 1014.9
20200531075605 70 0 0.0 0.0 0.00 0.00 0.00 89 1014.9
20200531075035 70 0 0.0 0.0 0.00 0.00 0.00 89 1014.9
20200531074505 70 0 0.0 0.0 0.00 0.00 0.00 89 1014.9
20200531074005 70 0 0.0 0.0 0.00 0.00 0.00 89 1014.9
20200531073435 70 0 0.0 0.0 0.00 0.00 0.00 89 1015.0
20200531072935 70 0 0.0 0.0 0.00 0.00 0.00 89 1015.1
20200531072405 70 0 0.0 0.0 0.00 0.00 0.00 89 1015.2
20200531071835 71 0 0.0 0.0 0.00 0.00 0.00 89 1015.1
20200531071353 71 0 0.0 0.0 0.00 0.00 0.00 89 1015.2
20200531071305 71 0 0.0 0.0 0.00 0.00 0.00 89 1015.2
20200531070805 71 0 0.0 0.0 0.00 0.00 0.00 89 1015.2
20200531070317 71 0 0.0 0.0 0.00 0.00 0.00 89 1015.2
20200531070235 71 0 0.0 0.0 0.00 0.00 0.00 89 1015.2
20200531070058 71 0 0.0 0.0 0.00 0.00 0.00 89 1015.3
20200531065705 71 0 0.0 0.0 0.00 0.00 0.00 89 1015.3
20200531065205 71 0 0.0 0.0 0.00 0.00 0.00 89 1015.3
20200531064635 71 0 0.0 0.0 0.00 0.00 0.00 89 1015.3
20200531064135 71 0 0.0 0.0 0.00 0.00 0.00 89 1015.3
20200531063658 71 0 0.0 0.0 0.00 0.00 0.00 89 1015.3
20200531063605 71 0 0.0 0.0 0.00 0.00 0.00 89 1015.3
20200531063132 71 0 0.0 0.0 0.00 0.00 0.00 89 1015.3
20200531063035 71 0 0.0 0.0 0.00 0.00 0.00 89 1015.3
20200531062535 71 219 0.0 1.7 0.00 0.00 0.00 89 1015.4
20200531062035 71 219 0.9 1.7 0.00 0.00 0.00 89 1015.5
20200531061505 71 218 0.0 1.7 0.00 0.00 0.00 89 1015.4
20200531061005 71 219 0.0 1.7 0.00 0.00 0.00 89 1015.6
20200531060505 71 219 0.9 2.6 0.00 0.00 0.00 89 1015.6
20200531055935 71 219 1.7 2.6 0.00 0.00 0.00 89 1015.6
20200531055435 71 219 1.7 2.6 0.00 0.00 0.00 89 1015.7
20200531054905 71 219 1.7 2.6 0.00 0.00 0.00 89 1015.7
20200531054729 71 219 1.7 2.6 0.00 0.00 0.00 89 1015.8
20200531054335 71 219 1.7 2.6 0.00 0.00 0.00 89 1015.8
20200531053835 72 219 1.7 3.5 0.00 0.00 0.00 89 1015.9
20200531053305 72 218 1.7 3.5 0.00 0.00 0.00 89 1015.9
20200531052846 72 218 0.9 2.6 0.00 0.00 0.00 89 1016.0
20200531052805 72 218 0.9 2.6 0.00 0.00 0.00 89 1016.0
20200531052347 72 219 0.9 3.5 0.00 0.00 0.00 89 1016.2
20200531052305 72 219 0.9 3.5 0.00 0.00 0.00 89 1016.2
20200531051736 72 223 1.7 3.5 0.00 0.00 0.00 89 1016.2
20200531051205 72 226 1.7 3.5 0.00 0.00 0.00 89 1016.3
20200531050705 72 226 1.7 3.5 0.00 0.00 0.00 89 1016.4
20200531050232 73 209 1.7 3.5 0.00 0.00 0.00 89 1016.5
20200531050135 73 209 1.7 3.5 0.00 0.00 0.00 89 1016.5
20200531045605 73 178 0.9 3.5 0.00 0.00 0.00 89 1016.5
20200531045145 73 159 0.9 3.5 0.00 0.00 0.00 89 1016.5
20200531045105 73 159 0.9 3.5 0.00 0.00 0.00 89 1016.5
20200531044605 73 159 0.9 3.5 0.00 0.00 0.00 88 1016.4
20200531044105 73 159 0.9 3.5 0.00 0.00 0.00 89 1016.5
20200531043535 73 159 0.0 1.7 0.00 0.00 0.00 89 1016.4
20200531043005 73 150 0.9 4.3 0.00 0.00 0.00 89 1016.4
20200531042505 73 143 1.7 4.3 0.00 0.00 0.00 89 1016.4
20200531041935 73 135 1.7 3.5 0.00 0.00 0.00 89 1016.4
20200531041435 73 125 0.9 3.5 0.00 0.00 0.00 88 1016.5
20200531040935 73 125 0.9 3.5 0.00 0.00 0.00 88 1016.5
20200531040435 73 127 0.9 3.5 0.00 0.00 0.00 88 1016.6
20200531035905 73 115 1.7 7.0 0.00 0.00 0.00 88 1016.6
20200531035335 73 110 1.7 7.0 0.00 0.00 0.00 88 1016.7
20200531034805 73 91 1.7 5.2 0.00 0.00 0.00 88 1016.7
20200531034235 73 84 1.7 5.2 0.00 0.00 0.00 88 1016.8
20200531033705 73 88 1.7 7.8 0.00 0.00 0.00 87 1016.9
20200531033205 72 92 1.7 7.8 0.00 0.00 0.00 87 1016.9
20200531032635 72 97 1.7 7.0 0.00 0.00 0.00 87 1017.0
20200531032105 72 123 1.7 5.2 0.00 0.00 0.00 86 1017.1
20200531031535 72 146 2.6 7.0 0.00 0.00 0.00 85 1017.0
20200531031035 72 151 2.6 7.8 0.00 0.00 0.00 85 1017.1
20200531030505 72 137 1.7 7.8 0.00 0.00 0.00 86 1017.0
20200531030006 72 131 1.7 6.1 0.00 0.00 0.00 86 1016.9
20200531025435 72 138 1.7 6.1 0.00 0.00 0.00 87 1016.9
20200531024905 72 135 1.7 5.2 0.00 0.00 0.00 87 1016.9
20200531024335 72 102 0.9 4.3 0.00 0.00 0.00 88 1016.8
20200531023835 72 130 1.7 6.1 0.00 0.00 0.00 88 1016.9
20200531023305 72 144 1.7 6.1 0.00 0.00 0.00 88 1016.9
20200531022805 72 110 2.6 6.1 0.00 0.00 0.00 88 1016.9
20200531022305 73 85 4.3 8.7 0.00 0.00 0.00 89 1016.9
20200531021735 73 84 7.0 12.2 0.00 0.00 0.00 89 1016.9
20200531021419 73 83 8.7 13.9 0.00 0.00 0.00 89 1017.1
20200531021205 73 83 8.7 13.9 0.00 0.00 0.00 89 1017.1
20200531020635 73 83 9.6 13.9 0.00 0.00 0.00 88 1017.0
20200531020225 73 83 10.4 17.4 0.00 0.00 0.00 88 1017.1
20200531020105 73 83 10.4 17.4 0.00 0.00 0.00 88 1017.1
20200531015535 73 82 12.2 19.1 0.00 0.00 0.00 88 1017.1
20200531015050 73 79 13.9 20.0 0.00 0.00 0.00 88 1017.1
20200531015005 73 79 13.9 20.0 0.00 0.00 0.00 88 1017.1
20200531014509 74 78 14.8 20.0 0.00 0.00 0.00 88 1017.2
20200531014435 74 78 14.8 20.0 0.00 0.00 0.00 88 1017.2
20200531013935 74 78 15.6 21.7 0.00 0.00 0.00 88 1017.4
20200531013405 75 75 15.6 25.2 0.00 0.00 0.00 88 1017.3
20200531012835 75 65 12.2 25.2 0.00 0.00 0.00 87 1017.0
20200531012305 76 58 7.8 15.6 0.00 0.00 0.00 88 1016.9
20200531012303 77 108 0.9 6.1 0.00 0.00 0.00 85 1015.8
20200531011805 77 62 2.6 8.7 0.00 0.00 0.00 87 1016.8
20200531011235 77 72 0.9 2.6 0.00 0.00 0.00 87 1016.2
20200531010706 77 78 2.6 7.0 0.00 0.00 0.00 87 1016.2
20200531010309 77 79 1.7 7.0 0.00 0.00 0.00 86 1016.0
20200531010135 77 79 1.7 7.0 0.00 0.00 0.00 86 1016.0
20200531005701 77 108 0.9 6.1 0.00 0.00 0.00 85 1015.8
20200531005605 77 108 0.9 6.1 0.00 0.00 0.00 85 1015.8
20200531005206 77 225 0.9 1.7 0.00 0.00 0.00 85 1015.6
20200531005105 77 225 0.9 1.7 0.00 0.00 0.00 85 1015.6
20200531004535 77 225 0.9 3.5 0.00 0.00 0.00 85 1015.6
20200531004005 77 213 1.7 3.5 0.00 0.00 0.00 84 1015.5
20200531003435 77 212 2.6 5.2 0.00 0.00 0.00 84 1015.4
20200531002935 77 192 3.5 8.7 0.00 0.00 0.00 85 1015.4
20200531002514 78 161 4.3 8.7 0.00 0.00 0.00 86 1015.2
20200531002435 78 161 4.3 8.7 0.00 0.00 0.00 86 1015.2
20200531001905 78 148 3.5 7.8 0.00 0.00 0.00 87 1015.1
20200531001335 78 141 1.7 5.2 0.00 0.00 0.00 86 1015.1
20200531000835 79 107 3.5 8.7 0.00 0.00 0.00 85 1015.1
20200531000305 79 82 7.8 14.8 0.00 0.00 0.00 86 1015.1
20200530235858 79 82 8.7 14.8 0.00 0.00 0.00 85 1015.1
20200530235805 79 82 8.7 14.8 0.00 0.00 0.00 85 1015.1
20200530235235 79 72 7.0 15.6 0.00 0.00 0.00 85 1015.1
20200530234748 80 67 5.2 14.8 0.00 0.00 0.00 86 1015.2
20200530234706 80 67 5.2 14.8 0.00 0.00 0.00 86 1015.2
20200530234259 80 84 2.6 7.0 0.00 0.00 0.00 84 1015.3
20200530234135 80 84 2.6 7.0 0.00 0.00 0.00 84 1015.3
20200530233605 80 142 1.7 5.2 0.00 0.00 0.00 83 1015.1
20200530233035 80 166 3.5 9.6 0.00 0.00 0.00 81 1014.6
20200530232735 81 166 4.3 10.4 0.00 0.00 0.00 80 1014.3
20200530232505 81 166 4.3 10.4 0.00 0.00 0.00 80 1014.3
20200530232139 82 166 4.3 10.4 0.00 0.00 0.00 79 1014.1
20200530231935 82 166 4.3 10.4 0.00 0.00 0.00 79 1014.1
20200530231405 82 157 4.3 11.3 0.00 0.00 0.00 78 1013.8
20200530230905 82 154 5.2 13.0 0.00 0.00 0.00 78 1013.8
20200530230335 83 154 6.1 13.0 0.00 0.00 0.00 78 1014.0
20200530225909 84 161 6.1 12.2 0.00 0.00 0.00 77 1013.8
20200530225835 84 161 6.1 12.2 0.00 0.00 0.00 77 1013.8
20200530225305 85 178 5.2 12.2 0.00 0.00 0.00 75 1013.8
20200530224735 86 179 3.5 12.2 0.00 0.00 0.00 70 1013.6
20200530224205 88 167 2.6 8.7 0.00 0.00 0.00 68 1013.4
20200530223635 89 119 3.5 10.4 0.00 0.00 0.00 68 1013.1
20200530223216 90 84 3.5 10.4 0.00 0.00 0.00 67 1012.9
20200530223135 90 84 3.5 10.4 0.00 0.00 0.00 67 1012.9
20200530222723 90 41 1.7 4.3 0.00 0.00 0.00 64 1012.9
20200530222635 90 41 1.7 4.3 0.00 0.00 0.00 64 1012.9
20200530222105 90 40 1.7 4.3 0.00 0.00 0.00 64 1012.8
20200530221535 90 41 1.7 3.5 0.00 0.00 0.00 65 1013.0
20200530221035 90 43 0.9 3.5 0.00 0.00 0.00 65 1013.0
20200530220505 90 41 0.9 2.6 0.00 0.00 0.00 66 1013.0
20200530220005 90 43 1.7 3.5 0.00 0.00 0.00 65 1013.0
20200530215522 90 48 0.9 3.5 0.00 0.00 0.00 65 1013.2
20200530215435 90 48 0.9 3.5 0.00 0.00 0.00 65 1013.2
20200530215014 90 30 0.9 3.5 0.00 0.00 0.00 64 1013.2
20200530214935 90 30 0.9 3.5 0.00 0.00 0.00 64 1013.2
20200530214451 90 10 0.9 3.5 0.00 0.00 0.00 66 1013.2
20200530214405 90 10 0.9 3.5 0.00 0.00 0.00 66 1013.2
20200530213905 90 24 1.7 3.5 0.00 0.00 0.00 65 1013.2
20200530213335 90 33 1.7 4.3 0.00 0.00 0.00 65 1013.2
20200530212835 91 26 0.9 4.3 0.00 0.00 0.00 65 1013.2
20200530212305 91 4 0.9 3.5 0.00 0.00 0.00 65 1013.3
20200530211841 91 31 0.9 3.5 0.00 0.00 0.00 65 1013.4
20200530211735 91 31 0.9 3.5 0.00 0.00 0.00 65 1013.4
20200530211205 91 50 2.6 7.0 0.00 0.00 0.00 63 1013.4
20200530210636 91 50 2.6 7.0 0.00 0.00 0.00 62 1013.4
20200530210233 91 44 2.6 4.3 0.00 0.00 0.00 64 1013.4
20200530210135 91 44 2.6 4.3 0.00 0.00 0.00 64 1013.4
20200530205656 91 48 2.6 5.2 0.00 0.00 0.00 64 1013.4
20200530205606 91 48 2.6 5.2 0.00 0.00 0.00 64 1013.4
20200530205036 91 52 1.7 5.2 0.00 0.00 0.00 62 1013.6
20200530204535 91 51 0.9 2.6 0.00 0.00 0.00 63 1013.7
20200530204006 92 44 0.9 2.6 0.00 0.00 0.00 63 1013.7
20200530203558 92 32 1.7 2.6 0.00 0.00 0.00 63 1013.9
20200530203505 92 32 1.7 2.6 0.00 0.00 0.00 63 1013.9
20200530203015 91 355 1.7 2.6 0.00 0.00 0.00 63 1013.8
20200530202936 91 355 1.7 2.6 0.00 0.00 0.00 63 1013.8
20200530202436 91 330 1.7 5.2 0.00 0.00 0.00 63 1013.9
20200530202003 91 333 1.7 5.2 0.00 0.00 0.00 62 1013.9
20200530201906 91 333 1.7 5.2 0.00 0.00 0.00 62 1013.9
20200530201553 92 62 0.9 2.6 0.00 0.00 0.00 63 1014.2
20200530201406 92 345 0.9 3.5 0.00 0.00 0.00 62 1013.9
20200530200836 92 359 0.0 2.6 0.00 0.00 0.00 62 1014.0
20200530200336 92 12 0.0 2.6 0.00 0.00 0.00 61 1014.0
20200530195836 92 62 0.9 2.6 0.00 0.00 0.00 63 1014.1
20200530195306 92 62 0.9 2.6 0.00 0.00 0.00 63 1014.2
20200530195243 93 43 0.9 4.3 0.00 0.00 0.00 62 1014.5
20200530194736 92 63 0.9 2.6 0.00 0.00 0.00 63 1014.2
20200530194236 92 67 0.9 3.5 0.00 0.00 0.00 62 1014.3
20200530193706 93 58 0.9 3.5 0.00 0.00 0.00 61 1014.3
20200530193136 93 320 0.9 4.3 0.00 0.00 0.00 61 1014.3
20200530192654 93 296 0.9 4.3 0.00 0.00 0.00 63 1014.4
20200530192606 93 296 0.9 4.3 0.00 0.00 0.00 63 1014.4
20200530192219 93 320 0.9 3.5 0.00 0.00 0.00 60 1014.4
20200530192106 93 320 0.9 3.5 0.00 0.00 0.00 60 1014.4
20200530191536 93 148 0.9 3.5 0.00 0.00 0.00 62 1014.4
20200530191006 93 89 0.9 3.5 0.00 0.00 0.00 64 1014.5
20200530190506 93 43 0.9 4.3 0.00 0.00 0.00 62 1014.5
20200530190414 92 1 0.9 3.5 0.00 0.00 0.00 62 1014.7
20200530185936 92 1 0.9 3.5 0.00 0.00 0.00 62 1014.7
20200530185513 92 342 0.9 3.5 0.00 0.00 0.00 62 1014.8
20200530185436 92 342 0.9 3.5 0.00 0.00 0.00 62 1014.8
20200530184907 92 316 0.9 1.7 0.00 0.00 0.00 62 1014.8
20200530184406 92 334 0.9 3.5 0.00 0.00 0.00 61 1014.8
20200530183836 92 338 0.9 3.5 0.00 0.00 0.00 62 1014.9
20200530183306 91 298 0.9 3.5 0.00 0.00 0.00 64 1014.9
20200530182736 91 245 1.7 3.5 0.00 0.00 0.00 64 1015.1
20200530182308 90 236 1.7 4.3 0.00 0.00 0.00 66 1015.1
20200530182206 90 236 1.7 4.3 0.00 0.00 0.00 66 1015.1
20200530181636 89 263 0.9 4.3 0.00 0.00 0.00 68 1015.1
20200530181136 88 262 0.9 2.6 0.00 0.00 0.00 68 1015.3
20200530180651 88 257 0.9 3.5 0.00 0.00 0.00 72 1015.3
20200530180606 88 257 0.9 3.5 0.00 0.00 0.00 72 1015.3
20200530180232 88 251 0.9 3.5 0.00 0.00 0.00 72 1015.4
20200530180106 88 251 0.9 3.5 0.00 0.00 0.00 72 1015.4
20200530175536 88 240 0.9 3.5 0.00 0.00 0.00 71 1015.5
20200530175006 88 232 0.9 3.5 0.00 0.00 0.00 70 1015.5
20200530174506 88 177 0.9 3.5 0.00 0.00 0.00 73 1015.6
20200530174006 88 169 0.9 3.5 0.00 0.00 0.00 72 1015.5
20200530173436 87 132 0.0 2.6 0.00 0.00 0.00 72 1015.6
20200530172906 87 93 0.0 2.6 0.00 0.00 0.00 71 1015.7
20200530172336 87 83 0.9 2.6 0.00 0.00 0.00 70 1015.7
20200530171806 87 78 0.9 2.6 0.00 0.00 0.00 74 1015.8
20200530171354 87 75 1.7 3.5 0.00 0.00 0.00 73 1015.8
20200530171315 87 75 1.7 3.5 0.00 0.00 0.00 73 1015.8
20200530171236 87 75 1.7 3.5 0.00 0.00 0.00 73 1015.8
20200530170736 88 78 2.6 4.3 0.00 0.00 0.00 73 1015.9
20200530170206 88 89 1.7 4.3 0.00 0.00 0.00 73 1015.9
20200530165732 88 109 0.9 3.5 0.00 0.00 0.00 72 1016.0
20200530165636 88 109 0.9 3.5 0.00 0.00 0.00 72 1016.0
20200530165219 88 242 0.9 3.5 0.00 0.00 0.00 75 1016.1
20200530165136 88 242 0.9 3.5 0.00 0.00 0.00 75 1016.1
20200530164700 87 242 0.9 3.5 0.00 0.00 0.00 74 1016.1
20200530164606 87 242 0.9 3.5 0.00 0.00 0.00 74 1016.1
20200530164106 87 242 0.9 2.6 0.00 0.00 0.00 75 1016.2
20200530163536 87 237 1.7 3.5 0.00 0.00 0.00 72 1016.2
20200530163147 88 218 1.7 5.2 0.00 0.00 0.00 73 1016.3
20200530163036 88 234 1.7 3.5 0.00 0.00 0.00 73 1016.2
20200530162544 88 218 1.7 5.2 0.00 0.00 0.00 73 1016.3
20200530162506 88 218 1.7 5.2 0.00 0.00 0.00 73 1016.3
20200530162345 86 183 2.6 8.7 0.00 0.00 0.00 74 1016.6
20200530161936 88 191 1.7 5.2 0.00 0.00 0.00 72 1016.3
20200530161406 88 186 0.0 2.6 0.00 0.00 0.00 72 1016.3
20200530160906 88 207 0.9 3.5 0.00 0.00 0.00 72 1016.3
20200530160406 86 220 0.9 3.5 0.00 0.00 0.00 72 1016.3
20200530155836 86 224 1.7 5.2 0.00 0.00 0.00 75 1016.4
20200530155336 86 225 1.7 5.2 0.00 0.00 0.00 76 1016.5
20200530154845 86 226 1.7 5.2 0.00 0.00 0.00 76 1016.6
20200530154806 86 226 1.7 5.2 0.00 0.00 0.00 76 1016.6
20200530154236 86 175 2.6 8.7 0.00 0.00 0.00 76 1016.6
20200530153736 86 183 2.6 8.7 0.00 0.00 0.00 74 1016.6
20200530153206 87 208 1.7 5.2 0.00 0.00 0.00 75 1016.6
20200530152636 87 204 1.7 6.1 0.00 0.00 0.00 77 1016.6
20200530152136 86 198 1.7 6.1 0.00 0.00 0.00 78 1016.6
20200530151636 86 218 2.6 6.1 0.00 0.00 0.00 77 1016.7
20200530151136 85 223 2.6 7.0 0.00 0.00 0.00 79 1016.6
20200530150636 86 222 2.6 7.0 0.00 0.00 0.00 78 1016.6
20200530150107 86 196 2.6 5.2 0.00 0.00 0.00 78 1016.6
20200530145536 86 196 3.5 7.8 0.00 0.00 0.00 80 1016.6
20200530145006 85 210 2.6 7.8 0.00 0.00 0.00 80 1016.7
20200530144436 85 221 2.6 7.8 0.00 0.00 0.00 81 1016.7
20200530143906 84 204 2.6 7.8 0.00 0.00 0.00 80 1016.5
20200530143336 84 166 2.6 7.0 0.00 0.00 0.00 83 1016.5
20200530142859 83 158 2.6 8.7 0.00 0.00 0.00 83 1016.6
20200530142806 83 158 2.6 8.7 0.00 0.00 0.00 83 1016.6
20200530142359 83 188 3.5 8.7 0.00 0.00 0.00 83 1016.6
20200530142306 83 188 3.5 8.7 0.00 0.00 0.00 83 1016.6
20200530142157 81 174 3.5 9.6 0.00 0.00 0.00 85 1016.7
20200530141736 82 216 3.5 8.7 0.00 0.00 0.00 83 1016.7
20200530141236 82 214 4.3 9.6 0.00 0.00 0.00 84 1016.7
20200530140801 82 196 3.5 9.6 0.00 0.00 0.00 83 1016.6
20200530140706 82 196 3.5 9.6 0.00 0.00 0.00 83 1016.6
20200530140219 82 156 2.6 8.7 0.00 0.00 0.00 85 1016.6
20200530140136 82 156 2.6 8.7 0.00 0.00 0.00 85 1016.6
20200530135606 82 161 3.5 8.7 0.00 0.00 0.00 86 1016.7
20200530135137 81 181 3.5 9.6 0.00 0.00 0.00 86 1016.6
20200530135036 81 181 3.5 9.6 0.00 0.00 0.00 86 1016.6
20200530134833 81 174 3.5 9.6 0.00 0.00 0.00 85 1016.7
20200530134506 81 174 3.5 9.6 0.00 0.00 0.00 85 1016.7
20200530134006 81 172 3.5 9.6 0.00 0.00 0.00 85 1016.8
20200530133436 81 177 3.5 9.6 0.00 0.00 0.00 85 1016.7
20200530132936 81 189 3.5 8.7 0.00 0.00 0.00 85 1016.7
20200530132406 81 177 3.5 8.7 0.00 0.00 0.00 87 1016.7
20200530131836 80 173 2.6 8.7 0.00 0.00 0.00 87 1016.8
20200530131336 80 160 3.5 8.7 0.00 0.00 0.00 88 1016.8
20200530131109 80 161 3.5 8.7 0.00 0.00 0.00 87 1016.9
20200530130836 80 161 3.5 8.7 0.00 0.00 0.00 87 1016.9
20200530130306 79 176 2.6 8.7 0.00 0.00 0.00 88 1016.8
20200530125806 79 173 2.6 8.7 0.00 0.00 0.00 88 1016.9
20200530125236 79 161 3.5 8.7 0.00 0.00 0.00 88 1017.0
20200530124731 75 150 1.7 6.1 0.00 0.00 0.00 89 1016.8
20200530124706 78 164 3.5 8.7 0.00 0.00 0.00 88 1017.0
20200530124136 78 181 1.7 4.3 0.00 0.00 0.00 89 1016.9
20200530123606 78 174 1.7 6.1 0.00 0.00 0.00 89 1016.9
20200530123036 77 171 1.7 6.1 0.00 0.00 0.00 89 1016.9
20200530122712 76 163 1.7 4.3 0.00 0.00 0.00 90 1016.9
20200530122536 77 161 1.7 5.2 0.00 0.00 0.00 89 1016.9
20200530122036 76 163 1.7 4.3 0.00 0.00 0.00 90 1016.9
20200530121506 76 160 3.5 8.7 0.00 0.00 0.00 89 1016.9
20200530121006 76 156 3.5 8.7 0.00 0.00 0.00 90 1017.0
20200530120436 75 151 2.6 6.1 0.00 0.00 0.00 89 1016.8
20200530115936 75 150 1.7 6.1 0.00 0.00 0.00 89 1016.8
20200530115436 74 157 0.0 6.1 0.00 0.00 0.00 88 1016.8
20200530114906 74 0 0.0 0.0 0.00 0.00 0.00 88 1016.8
20200530114336 74 0 0.0 0.0 0.00 0.00 0.00 88 1016.8
20200530113841 73 0 0.0 0.0 0.00 0.00 0.00 88 1016.8
20200530113836 73 0 0.0 0.0 0.00 0.00 0.00 88 1016.8
20200530113306 73 0 0.0 0.0 0.00 0.00 0.00 88 1016.7
20200530112745 73 0 0.0 0.0 0.00 0.00 0.00 88 1016.7
20200530112736 73 0 0.0 0.0 0.00 0.00 0.00 88 1016.7
20200530112206 72 0 0.0 0.0 0.00 0.00 0.00 89 1016.5
20200530111636 72 0 0.0 0.0 0.00 0.00 0.00 88 1016.6
20200530111141 72 0 0.0 0.0 0.00 0.00 0.00 88 1016.6
20200530111136 72 0 0.0 0.0 0.00 0.00 0.00 88 1016.6
20200530110606 72 0 0.0 0.0 0.00 0.00 0.00 89 1016.5
20200530110106 72 0 0.0 0.0 0.00 0.00 0.00 89 1016.7
20200530105536 72 0 0.0 0.0 0.00 0.00 0.00 89 1016.6
20200530105006 72 0 0.0 0.0 0.00 0.00 0.00 89 1016.5
20200530104510 72 0 0.0 0.0 0.00 0.00 0.00 89 1016.5
20200530104506 72 0 0.0 0.0 0.00 0.00 0.00 89 1016.5
20200530103937 72 0 0.0 0.0 0.00 0.00 0.00 89 1016.4
20200530103436 72 0 0.0 0.0 0.00 0.00 0.00 89 1016.3
20200530102906 72 0 0.0 0.0 0.00 0.00 0.00 89 1016.2
20200530102412 72 85 0.0 0.9 0.00 0.00 0.00 89 1016.1
20200530102406 72 85 0.0 0.9 0.00 0.00 0.00 89 1016.1
20200530101836 73 85 0.0 0.9 0.00 0.00 0.00 90 1016.1
20200530101336 73 0 0.0 0.0 0.00 0.00 0.00 90 1016.1
20200530100937 73 0 0.0 0.0 0.00 0.00 0.00 89 1016.2
20200530100806 73 0 0.0 0.0 0.00 0.00 0.00 90 1016.1
20200530100310 73 0 0.0 0.0 0.00 0.00 0.00 90 1016.2
20200530100306 73 0 0.0 0.0 0.00 0.00 0.00 90 1016.2
20200530095736 73 0 0.0 0.0 0.00 0.00 0.00 90 1016.2
20200530095236 73 0 0.0 0.0 0.00 0.00 0.00 90 1016.2
20200530094706 73 0 0.0 0.0 0.00 0.00 0.00 89 1016.2
20200530094255 73 0 0.0 0.0 0.00 0.00 0.00 90 1016.2
20200530094206 73 0 0.0 0.0 0.00 0.00 0.00 90 1016.2
20200530093636 73 0 0.0 0.0 0.00 0.00 0.00 90 1016.0
20200530093143 74 85 0.0 0.9 0.00 0.00 0.00 90 1015.9
20200530093136 74 85 0.0 0.9 0.00 0.00 0.00 90 1015.9
20200530092606 74 85 0.0 0.9 0.00 0.00 0.00 89 1015.9
20200530092036 74 85 0.0 1.7 0.00 0.00 0.00 89 1015.9
20200530090936 74 81 2.6 5.2 0.00 0.00 0.00 89 1015.9
20200530090436 74 79 1.7 5.2 0.00 0.00 0.00 89 1015.9
20200530090002 74 75 0.0 3.5 0.00 0.00 0.00 89 1016.0
20200530085936 74 75 0.0 3.5 0.00 0.00 0.00 89 1016.0
20200530085445 74 0 0.0 0.0 0.00 0.00 0.00 89 1015.9
20200530085406 74 0 0.0 0.0 0.00 0.00 0.00 89 1015.9
20200530084836 74 79 0.0 0.9 0.00 0.00 0.00 89 1016.0
20200530084426 74 77 0.9 1.7 0.00 0.00 0.00 89 1016.0
20200530084422 74 77 0.9 1.7 0.00 0.00 0.00 89 1016.0
20200530084306 74 77 0.9 1.7 0.00 0.00 0.00 89 1016.0
20200530083736 74 77 0.9 3.5 0.00 0.00 0.00 89 1016.0
20200530083328 74 78 1.7 3.5 0.00 0.00 0.00 89 1016.0
20200530083236 74 78 1.7 3.5 0.00 0.00 0.00 89 1016.0
20200530082842 74 80 1.7 4.3 0.00 0.00 0.00 89 1016.0
20200530082706 74 80 1.7 4.3 0.00 0.00 0.00 89 1016.0